Location: Lake Almanor
(40.2485°N, 121.1442°W)
Time: 23:36:31
(UTC-08:00)

STARLINK-1078 - Pass Details

Date: 31 January 2020
Orbit: 348 x 351 km, 53.0° (Epoch: 23 February)

Event Time Altitude Azimuth Distance (km) Brightness Sun altitude
Rises 18:14:46 0° 314° (NW) 2,165 7.1 -10.5°
Reaches altitude 10° 18:16:52 10° 323° (NW) 1,319 5.9 -10.8°
Maximum altitude 18:19:38 37° 34° (NE) 560 3.3 -11.4°
Enters shadow 18:21:14 20° 92° (E) 884 4.1 -11.7°
